Location: Newark
(44.1667°N, 8.2500°E)
Time: 19:07:57
(UTC+00:00)

Vanguard 2 - Pass Details

Date: 08 December 2019
Orbit: 553 x 2938 km, 32.9° (Epoch: 28 January)

Event Time Altitude Azimuth Distance (km) Brightness Sun altitude
Exits shadow 05:21:05 12° 263° (W) 5,606 11.3 -15.2°
Maximum altitude 05:36:48 50° 197° (SSW) 3,102 10.6 -12.5°
Drops below altitude 10° 05:49:09 10° 127° (SE) 4,399 12.8 -10.4°
Sets 05:52:13 0° 121° (ESE) 5,108 13.8 -9.9°
